Year,Month,Day,Hour,Minute,Value (Times are PST for temperature in C)
2018,10,20,00,00,6.40
2018,10,20,00,01,6.40
2018,10,20,00,02,6.30
2018,10,20,00,03,6.30
2018,10,20,00,04,6.30
2018,10,20,00,05,6.20
2018,10,20,00,06,6.20
2018,10,20,00,07,6.20
2018,10,20,00,08,6.10
2018,10,20,00,09,6.10
2018,10,20,00,10,6.10
2018,10,20,00,11,6.10
2018,10,20,00,12,6.10
2018,10,20,00,13,6.00
2018,10,20,00,14,6.00
2018,10,20,00,15,6.00
2018,10,20,00,16,6.10
2018,10,20,00,17,6.10
2018,10,20,00,18,6.10
2018,10,20,00,19,6.10
2018,10,20,00,20,6.10
2018,10,20,00,21,6.10
2018,10,20,00,22,6.10
2018,10,20,00,23,6.10
2018,10,20,00,24,6.20
2018,10,20,00,25,6.20
2018,10,20,00,26,6.30
2018,10,20,00,27,6.30
2018,10,20,00,28,6.30
2018,10,20,00,29,6.30
2018,10,20,00,30,6.30
2018,10,20,00,31,6.30
2018,10,20,00,32,6.30
2018,10,20,00,33,6.30
2018,10,20,00,34,6.30
2018,10,20,00,35,6.30
2018,10,20,00,36,6.30
2018,10,20,00,37,6.30
2018,10,20,00,38,6.30
2018,10,20,00,39,6.40
2018,10,20,00,40,6.40
2018,10,20,00,41,6.30
2018,10,20,00,42,6.30
2018,10,20,00,43,6.30
2018,10,20,00,44,6.20
2018,10,20,00,45,6.20
2018,10,20,00,46,6.20
2018,10,20,00,47,6.10
2018,10,20,00,48,6.10
2018,10,20,00,49,6.10
2018,10,20,00,50,6.20
2018,10,20,00,51,6.20
2018,10,20,00,52,6.10
2018,10,20,00,53,6.10
2018,10,20,00,54,6.10
2018,10,20,00,55,6.10
2018,10,20,00,56,6.00
2018,10,20,00,57,6.00
2018,10,20,00,58,6.00
2018,10,20,00,59,6.00
2018,10,20,01,00,6.00
2018,10,20,01,01,6.00
2018,10,20,01,02,6.00
2018,10,20,01,03,6.00
2018,10,20,01,04,6.00
2018,10,20,01,05,6.00
2018,10,20,01,06,6.00
2018,10,20,01,07,6.00
2018,10,20,01,08,6.00
2018,10,20,01,09,6.00
2018,10,20,01,10,5.90
2018,10,20,01,11,5.80
2018,10,20,01,12,5.80
2018,10,20,01,13,5.70
2018,10,20,01,14,5.70
2018,10,20,01,15,5.70
2018,10,20,01,16,5.60
2018,10,20,01,17,5.60
2018,10,20,01,18,5.60
2018,10,20,01,19,5.60
2018,10,20,01,20,5.60
2018,10,20,01,21,5.60
2018,10,20,01,22,5.60
2018,10,20,01,23,5.60
2018,10,20,01,24,5.60
2018,10,20,01,25,5.60
2018,10,20,01,26,5.60
2018,10,20,01,27,5.50
2018,10,20,01,28,5.50
2018,10,20,01,29,5.50
2018,10,20,01,30,5.50
2018,10,20,01,31,5.40
2018,10,20,01,32,5.40
2018,10,20,01,33,5.40
2018,10,20,01,34,5.40
2018,10,20,01,35,5.50
2018,10,20,01,36,5.50
2018,10,20,01,37,5.50
2018,10,20,01,38,5.60
2018,10,20,01,39,5.60
2018,10,20,01,40,5.70
2018,10,20,01,41,5.70
2018,10,20,01,42,5.80
2018,10,20,01,43,5.80
2018,10,20,01,44,5.80
2018,10,20,01,45,5.80
2018,10,20,01,46,5.80
2018,10,20,01,47,5.90
2018,10,20,01,48,5.90
2018,10,20,01,49,5.90
2018,10,20,01,50,5.80
2018,10,20,01,51,5.80
2018,10,20,01,52,5.80
2018,10,20,01,53,5.80
2018,10,20,01,54,5.80
2018,10,20,01,55,5.80
2018,10,20,01,56,5.70
2018,10,20,01,57,5.70
2018,10,20,01,58,5.70
2018,10,20,01,59,5.80
2018,10,20,02,00,5.80
2018,10,20,02,01,5.70
2018,10,20,02,02,5.70
2018,10,20,02,03,5.70
2018,10,20,02,04,5.60
2018,10,20,02,05,5.60
2018,10,20,02,06,5.50
2018,10,20,02,07,5.50
2018,10,20,02,08,5.40
2018,10,20,02,09,5.40
2018,10,20,02,10,5.30
2018,10,20,02,11,5.30
2018,10,20,02,12,5.30
2018,10,20,02,13,5.30
2018,10,20,02,14,5.30
2018,10,20,02,15,5.30
2018,10,20,02,16,5.30
2018,10,20,02,17,5.30
2018,10,20,02,18,5.40
2018,10,20,02,19,5.40
2018,10,20,02,20,5.40
2018,10,20,02,21,5.50
2018,10,20,02,22,5.60
2018,10,20,02,23,5.60
2018,10,20,02,24,5.60
2018,10,20,02,25,5.50
2018,10,20,02,26,5.50
2018,10,20,02,27,5.50
2018,10,20,02,28,5.50
2018,10,20,02,29,5.40
2018,10,20,02,30,5.40
2018,10,20,02,31,5.40
2018,10,20,02,32,5.40
2018,10,20,02,33,5.30
2018,10,20,02,34,5.30
2018,10,20,02,35,5.30
2018,10,20,02,36,5.30
2018,10,20,02,37,5.30
2018,10,20,02,38,5.30
2018,10,20,02,39,5.30
2018,10,20,02,40,5.30
2018,10,20,02,41,5.30
2018,10,20,02,42,5.20
2018,10,20,02,43,5.20
2018,10,20,02,44,5.20
2018,10,20,02,45,5.20
2018,10,20,02,46,5.20
2018,10,20,02,47,5.20
2018,10,20,02,48,5.20
2018,10,20,02,49,5.20
2018,10,20,02,50,5.20
2018,10,20,02,51,5.20
2018,10,20,02,52,5.20
2018,10,20,02,53,5.30
2018,10,20,02,54,5.30
2018,10,20,02,55,5.30
2018,10,20,02,56,5.30
2018,10,20,02,57,5.30
2018,10,20,02,58,5.30
2018,10,20,02,59,5.20
2018,10,20,03,00,5.20
2018,10,20,03,01,5.20
2018,10,20,03,02,5.20
2018,10,20,03,03,5.20
2018,10,20,03,04,5.30
2018,10,20,03,05,5.30
2018,10,20,03,06,5.30
2018,10,20,03,07,5.20
2018,10,20,03,08,5.20
2018,10,20,03,09,5.10
2018,10,20,03,10,5.10
2018,10,20,03,11,5.00
2018,10,20,03,12,4.90
2018,10,20,03,13,4.90
2018,10,20,03,14,4.90
2018,10,20,03,15,4.80
2018,10,20,03,16,4.80
2018,10,20,03,17,4.70
2018,10,20,03,18,4.70
2018,10,20,03,19,4.70
2018,10,20,03,20,4.70
2018,10,20,03,21,4.70
2018,10,20,03,22,4.70
2018,10,20,03,23,4.70
2018,10,20,03,24,4.70
2018,10,20,03,25,4.70
2018,10,20,03,26,4.70
2018,10,20,03,27,4.70
2018,10,20,03,28,4.70
2018,10,20,03,29,4.70
2018,10,20,03,30,4.70
2018,10,20,03,31,4.70
2018,10,20,03,32,4.70
2018,10,20,03,33,4.70
2018,10,20,03,34,4.70
2018,10,20,03,35,4.70
2018,10,20,03,36,4.70
2018,10,20,03,37,4.70
2018,10,20,03,38,4.70
2018,10,20,03,39,4.70
2018,10,20,03,40,4.80
2018,10,20,03,41,4.80
2018,10,20,03,42,4.80
2018,10,20,03,43,4.80
2018,10,20,03,44,4.80
2018,10,20,03,45,4.80
2018,10,20,03,46,4.80
2018,10,20,03,47,4.80
2018,10,20,03,48,4.80
2018,10,20,03,49,4.80
2018,10,20,03,50,4.80
2018,10,20,03,51,4.80
2018,10,20,03,52,4.80
2018,10,20,03,53,4.80
2018,10,20,03,54,4.90
2018,10,20,03,55,4.90
2018,10,20,03,56,4.90
2018,10,20,03,57,4.90
2018,10,20,03,58,4.90
2018,10,20,03,59,4.90
2018,10,20,04,00,4.90
2018,10,20,04,01,4.90
2018,10,20,04,02,4.80
2018,10,20,04,03,4.70
2018,10,20,04,04,4.60
2018,10,20,04,05,4.60
2018,10,20,04,06,4.50
2018,10,20,04,07,4.40
2018,10,20,04,08,4.30
2018,10,20,04,09,4.30
2018,10,20,04,10,4.20
2018,10,20,04,11,4.20
2018,10,20,04,12,4.20
2018,10,20,04,13,4.10
2018,10,20,04,14,4.10
2018,10,20,04,15,4.10
2018,10,20,04,16,4.10
2018,10,20,04,17,4.10
2018,10,20,04,18,4.10
2018,10,20,04,19,4.10
2018,10,20,04,20,4.10
2018,10,20,04,21,4.10
2018,10,20,04,22,4.10
2018,10,20,04,23,4.10
2018,10,20,04,24,4.10
2018,10,20,04,25,4.10
2018,10,20,04,26,4.10
2018,10,20,04,27,4.10
2018,10,20,04,28,4.10
2018,10,20,04,29,4.10
2018,10,20,04,30,4.10
2018,10,20,04,31,4.10
2018,10,20,04,32,4.10
2018,10,20,04,33,4.10
2018,10,20,04,34,4.00
2018,10,20,04,35,4.00
2018,10,20,04,36,3.90
2018,10,20,04,37,3.90
2018,10,20,04,38,3.90
2018,10,20,04,39,3.80
2018,10,20,04,40,3.80
2018,10,20,04,41,3.80
2018,10,20,04,42,3.80
2018,10,20,04,43,3.80
2018,10,20,04,44,3.80
2018,10,20,04,45,3.80
2018,10,20,04,46,3.70
2018,10,20,04,47,3.70
2018,10,20,04,48,3.70
2018,10,20,04,49,3.80
2018,10,20,04,50,3.80
2018,10,20,04,51,3.80
2018,10,20,04,52,3.80
2018,10,20,04,53,3.80
2018,10,20,04,54,3.80
2018,10,20,04,55,3.70
2018,10,20,04,56,3.70
2018,10,20,04,57,3.70
2018,10,20,04,58,3.80
2018,10,20,04,59,3.80
2018,10,20,05,00,3.80
2018,10,20,05,01,3.80
2018,10,20,05,02,3.80
2018,10,20,05,03,3.80
2018,10,20,05,04,3.80
2018,10,20,05,05,3.90
2018,10,20,05,06,3.90
2018,10,20,05,07,3.90
2018,10,20,05,08,3.90
2018,10,20,05,09,4.00
2018,10,20,05,10,4.00
2018,10,20,05,11,4.10
2018,10,20,05,12,4.10
2018,10,20,05,13,4.10
2018,10,20,05,14,4.20
2018,10,20,05,15,4.20
2018,10,20,05,16,4.20
2018,10,20,05,17,4.20
2018,10,20,05,18,4.10
2018,10,20,05,19,4.10
2018,10,20,05,20,4.00
2018,10,20,05,21,3.90
2018,10,20,05,22,3.80
2018,10,20,05,23,3.80
2018,10,20,05,24,3.80
2018,10,20,05,25,3.70
2018,10,20,05,26,3.70
2018,10,20,05,27,3.70
2018,10,20,05,28,3.60
2018,10,20,05,29,3.60
2018,10,20,05,30,3.60
2018,10,20,05,31,3.60
2018,10,20,05,32,3.60
2018,10,20,05,33,3.70
2018,10,20,05,34,3.70
2018,10,20,05,35,3.70
2018,10,20,05,36,3.80
2018,10,20,05,37,3.80
2018,10,20,05,38,3.80
2018,10,20,05,39,3.80
2018,10,20,05,40,3.80
2018,10,20,05,41,3.80
2018,10,20,05,42,3.80
2018,10,20,05,43,3.90
2018,10,20,05,44,3.80
2018,10,20,05,45,3.80
2018,10,20,05,46,3.80
2018,10,20,05,47,3.80
2018,10,20,05,48,3.80
2018,10,20,05,49,3.70
2018,10,20,05,50,3.70
2018,10,20,05,51,3.70
2018,10,20,05,52,3.60
2018,10,20,05,53,3.60
2018,10,20,05,54,3.60
2018,10,20,05,55,3.60
2018,10,20,05,56,3.60
2018,10,20,05,57,3.60
2018,10,20,05,58,3.60
2018,10,20,05,59,3.70
2018,10,20,06,00,3.70
2018,10,20,06,01,3.70
2018,10,20,06,02,3.70
2018,10,20,06,03,3.70
2018,10,20,06,04,3.70
2018,10,20,06,05,3.70
2018,10,20,06,06,3.70
2018,10,20,06,07,3.70
2018,10,20,06,08,3.70
2018,10,20,06,09,3.70
2018,10,20,06,10,3.60
2018,10,20,06,11,3.60
2018,10,20,06,12,3.50
2018,10,20,06,13,3.50
2018,10,20,06,14,3.50
2018,10,20,06,15,3.50
2018,10,20,06,16,3.50
2018,10,20,06,17,3.50
2018,10,20,06,18,3.50
2018,10,20,06,19,3.50
2018,10,20,06,20,3.50
2018,10,20,06,21,3.50
2018,10,20,06,22,3.50
2018,10,20,06,23,3.50
2018,10,20,06,24,3.50
2018,10,20,06,25,3.40
2018,10,20,06,26,3.50
2018,10,20,06,27,3.50
2018,10,20,06,28,3.40
2018,10,20,06,29,3.50
2018,10,20,06,30,3.50
2018,10,20,06,31,3.50
2018,10,20,06,32,3.50
2018,10,20,06,33,3.50
2018,10,20,06,34,3.50
2018,10,20,06,35,3.50
2018,10,20,06,36,3.50
2018,10,20,06,37,3.60
2018,10,20,06,38,3.60
2018,10,20,06,39,3.60
2018,10,20,06,40,3.60
2018,10,20,06,41,3.60
2018,10,20,06,42,3.60
2018,10,20,06,43,3.60
2018,10,20,06,44,3.60
2018,10,20,06,45,3.60
2018,10,20,06,46,3.60
2018,10,20,06,47,3.60
2018,10,20,06,48,3.60
2018,10,20,06,49,3.60
2018,10,20,06,50,3.60
2018,10,20,06,51,3.60
2018,10,20,06,52,3.60
2018,10,20,06,53,3.60
2018,10,20,06,54,3.60
2018,10,20,06,55,3.60
2018,10,20,06,56,3.60
2018,10,20,06,57,3.60
2018,10,20,06,58,3.60
2018,10,20,06,59,3.60
2018,10,20,07,00,3.60
2018,10,20,07,01,3.60
2018,10,20,07,02,3.60
2018,10,20,07,03,3.60
2018,10,20,07,04,3.60
2018,10,20,07,05,3.60
2018,10,20,07,06,3.60
2018,10,20,07,07,3.60
2018,10,20,07,08,3.50
2018,10,20,07,09,3.50
2018,10,20,07,10,3.50
2018,10,20,07,11,3.50
2018,10,20,07,12,3.50
2018,10,20,07,13,3.40
2018,10,20,07,14,3.40
2018,10,20,07,15,3.40
2018,10,20,07,16,3.40
2018,10,20,07,17,3.40
2018,10,20,07,18,3.40
2018,10,20,07,19,3.40
2018,10,20,07,20,3.30
2018,10,20,07,21,3.30
2018,10,20,07,22,3.30
2018,10,20,07,23,3.30
2018,10,20,07,24,3.30
2018,10,20,07,25,3.30
2018,10,20,07,26,3.30
2018,10,20,07,27,3.20
2018,10,20,07,28,3.20
2018,10,20,07,29,3.20
2018,10,20,07,30,3.20
2018,10,20,07,31,3.20
2018,10,20,07,32,3.20
2018,10,20,07,33,3.20
2018,10,20,07,34,3.20
2018,10,20,07,35,3.20
2018,10,20,07,36,3.20
2018,10,20,07,37,3.20
2018,10,20,07,38,3.20
2018,10,20,07,39,3.20
2018,10,20,07,40,3.20
2018,10,20,07,41,3.20
2018,10,20,07,42,3.20
2018,10,20,07,43,3.20
2018,10,20,07,44,3.30
2018,10,20,07,45,3.30
2018,10,20,07,46,3.30
2018,10,20,07,47,3.30
2018,10,20,07,48,3.30
2018,10,20,07,49,3.40
2018,10,20,07,50,3.40
2018,10,20,07,51,3.40
2018,10,20,07,52,3.40
2018,10,20,07,53,3.40
2018,10,20,07,54,3.40
2018,10,20,07,55,3.40
2018,10,20,07,56,3.50
2018,10,20,07,57,3.40
2018,10,20,07,58,3.40
2018,10,20,07,59,3.40
2018,10,20,08,00,3.40
2018,10,20,08,01,3.30
2018,10,20,08,02,3.30
2018,10,20,08,03,3.30
2018,10,20,08,04,3.30
2018,10,20,08,05,3.30
2018,10,20,08,06,3.30
2018,10,20,08,07,3.30
2018,10,20,08,08,3.40
2018,10,20,08,09,3.40
2018,10,20,08,10,3.40
2018,10,20,08,11,3.40
2018,10,20,08,12,3.40
2018,10,20,08,13,3.50
2018,10,20,08,14,3.50
2018,10,20,08,15,3.50
2018,10,20,08,16,3.50
2018,10,20,08,17,3.50
2018,10,20,08,18,3.50
2018,10,20,08,19,3.50
2018,10,20,08,20,3.50
2018,10,20,08,21,3.50
2018,10,20,08,22,3.50
2018,10,20,08,23,3.50
2018,10,20,08,24,3.50
2018,10,20,08,25,3.50
2018,10,20,08,26,3.50
2018,10,20,08,27,3.50
2018,10,20,08,28,3.50
2018,10,20,08,29,3.50
2018,10,20,08,30,3.60
2018,10,20,08,31,3.60
2018,10,20,08,32,3.60
2018,10,20,08,33,3.60
2018,10,20,08,34,3.60
2018,10,20,08,35,3.60
2018,10,20,08,36,3.70
2018,10,20,08,37,3.70
2018,10,20,08,38,3.70
2018,10,20,08,39,3.80
2018,10,20,08,40,3.80
2018,10,20,08,41,3.80
2018,10,20,08,42,3.80
2018,10,20,08,43,3.90
2018,10,20,08,44,3.90
2018,10,20,08,45,3.90
2018,10,20,08,46,4.00
2018,10,20,08,47,4.00
2018,10,20,08,48,4.00
2018,10,20,08,49,4.10
2018,10,20,08,50,4.10
2018,10,20,08,51,4.20
2018,10,20,08,52,4.20
2018,10,20,08,53,4.20
2018,10,20,08,54,4.20
2018,10,20,08,55,4.30
2018,10,20,08,56,4.30
2018,10,20,08,57,4.30
2018,10,20,08,58,4.30
2018,10,20,08,59,4.30
2018,10,20,09,00,4.30
2018,10,20,09,01,4.40
2018,10,20,09,02,4.40
2018,10,20,09,03,4.40
2018,10,20,09,04,4.40
2018,10,20,09,05,4.50
2018,10,20,09,06,4.50
2018,10,20,09,07,4.60
2018,10,20,09,08,4.70
2018,10,20,09,09,4.70
2018,10,20,09,10,4.80
2018,10,20,09,11,4.90
2018,10,20,09,12,5.00
2018,10,20,09,13,5.10
2018,10,20,09,14,5.10
2018,10,20,09,15,5.20
2018,10,20,09,16,5.20
2018,10,20,09,17,5.20
2018,10,20,09,18,5.20
2018,10,20,09,19,5.30
2018,10,20,09,20,5.30
2018,10,20,09,21,5.30
2018,10,20,09,22,5.30
2018,10,20,09,23,5.40
2018,10,20,09,24,5.40
2018,10,20,09,25,5.40
2018,10,20,09,26,5.40
2018,10,20,09,27,5.50
2018,10,20,09,28,5.50
2018,10,20,09,29,5.60
2018,10,20,09,30,5.60
2018,10,20,09,31,5.70
2018,10,20,09,32,5.70
2018,10,20,09,33,5.80
2018,10,20,09,34,5.80
2018,10,20,09,35,5.80
2018,10,20,09,36,5.80
2018,10,20,09,37,5.90
2018,10,20,09,38,5.90
2018,10,20,09,39,5.90
2018,10,20,09,40,5.90
2018,10,20,09,41,6.00
2018,10,20,09,42,6.00
2018,10,20,09,43,6.10
2018,10,20,09,44,6.10
2018,10,20,09,45,6.20
2018,10,20,09,46,6.20
2018,10,20,09,47,6.20
2018,10,20,09,48,6.30
2018,10,20,09,49,6.30
2018,10,20,09,50,6.40
2018,10,20,09,51,6.40
2018,10,20,09,52,6.40
2018,10,20,09,53,6.50
2018,10,20,09,54,6.50
2018,10,20,09,55,6.60
2018,10,20,09,56,6.60
2018,10,20,09,57,6.70
2018,10,20,09,58,6.70
2018,10,20,09,59,6.80
2018,10,20,10,00,6.80
2018,10,20,10,01,6.90
2018,10,20,10,02,6.90
2018,10,20,10,03,6.90
2018,10,20,10,04,7.00
2018,10,20,10,05,7.00
2018,10,20,10,06,7.10
2018,10,20,10,07,7.10
2018,10,20,10,08,7.20
2018,10,20,10,09,7.20
2018,10,20,10,10,7.30
2018,10,20,10,11,7.30
2018,10,20,10,12,7.40
2018,10,20,10,13,7.40
2018,10,20,10,14,7.40
2018,10,20,10,15,7.40
2018,10,20,10,16,7.50
2018,10,20,10,17,7.60
2018,10,20,10,18,7.60
2018,10,20,10,19,7.70
2018,10,20,10,20,7.80
2018,10,20,10,21,7.90
2018,10,20,10,22,8.00
2018,10,20,10,23,8.10
2018,10,20,10,24,8.20
2018,10,20,10,25,8.30
2018,10,20,10,26,8.40
2018,10,20,10,27,8.50
2018,10,20,10,28,8.50
2018,10,20,10,29,8.60
2018,10,20,10,30,8.70
2018,10,20,10,31,8.80
2018,10,20,10,32,8.80
2018,10,20,10,33,8.80
2018,10,20,10,34,8.90
2018,10,20,10,35,8.90
2018,10,20,10,36,8.90
2018,10,20,10,37,8.90
2018,10,20,10,38,8.90
2018,10,20,10,39,8.90
2018,10,20,10,40,8.90
2018,10,20,10,41,9.00
2018,10,20,10,42,9.00
2018,10,20,10,43,9.00
2018,10,20,10,44,9.10
2018,10,20,10,45,9.10
2018,10,20,10,46,9.20
2018,10,20,10,47,9.20
2018,10,20,10,48,9.20
2018,10,20,10,49,9.30
2018,10,20,10,50,9.30
2018,10,20,10,51,9.30
2018,10,20,10,52,9.30
2018,10,20,10,53,9.40
2018,10,20,10,54,9.50
2018,10,20,10,55,9.50
2018,10,20,10,56,9.60
2018,10,20,10,57,9.70
2018,10,20,10,58,9.70
2018,10,20,10,59,9.80
2018,10,20,11,00,9.90
2018,10,20,11,01,9.90
2018,10,20,11,02,10.00
2018,10,20,11,03,10.10
2018,10,20,11,04,10.10
2018,10,20,11,05,10.20
2018,10,20,11,06,10.20
2018,10,20,11,07,10.30
2018,10,20,11,08,10.30
2018,10,20,11,09,10.40
2018,10,20,11,10,10.50
2018,10,20,11,11,10.60
2018,10,20,11,12,10.60
2018,10,20,11,13,10.70
2018,10,20,11,14,10.70
2018,10,20,11,15,10.80
2018,10,20,11,16,10.80
2018,10,20,11,17,10.90
2018,10,20,11,18,11.00
2018,10,20,11,19,11.00
2018,10,20,11,20,11.10
2018,10,20,11,21,11.20
2018,10,20,11,22,11.20
2018,10,20,11,23,11.30
2018,10,20,11,24,11.30
2018,10,20,11,25,11.40
2018,10,20,11,26,11.50
2018,10,20,11,27,11.60
2018,10,20,11,28,11.70
2018,10,20,11,29,11.80
2018,10,20,11,30,11.90
2018,10,20,11,31,11.90
2018,10,20,11,32,11.90
2018,10,20,11,33,12.00
2018,10,20,11,34,12.00
2018,10,20,11,35,12.00
2018,10,20,11,36,12.10
2018,10,20,11,37,12.20
2018,10,20,11,38,12.30
2018,10,20,11,39,12.30
2018,10,20,11,40,12.40
2018,10,20,11,41,12.50
2018,10,20,11,42,12.50
2018,10,20,11,43,12.60
2018,10,20,11,44,12.60
2018,10,20,11,45,12.70
2018,10,20,11,46,12.70
2018,10,20,11,47,12.70
2018,10,20,11,48,12.80
2018,10,20,11,49,12.80
2018,10,20,11,50,12.80
2018,10,20,11,51,12.90
2018,10,20,11,52,12.90
2018,10,20,11,53,13.00
2018,10,20,11,54,13.00
2018,10,20,11,55,13.00
2018,10,20,11,56,12.90
2018,10,20,11,57,12.90
2018,10,20,11,58,12.90
2018,10,20,11,59,12.90
2018,10,20,12,00,12.90
2018,10,20,12,01,13.00
2018,10,20,12,02,13.10
2018,10,20,12,03,13.10
2018,10,20,12,04,13.20
2018,10,20,12,05,13.20
2018,10,20,12,06,13.30
2018,10,20,12,07,13.30
2018,10,20,12,08,13.30
2018,10,20,12,09,13.30
2018,10,20,12,10,13.30
2018,10,20,12,11,13.40
2018,10,20,12,12,13.50
2018,10,20,12,13,13.60
2018,10,20,12,14,13.70
2018,10,20,12,15,13.70
2018,10,20,12,16,13.70
2018,10,20,12,17,13.70
2018,10,20,12,18,13.80
2018,10,20,12,19,13.80
2018,10,20,12,20,13.80
2018,10,20,12,21,13.80
2018,10,20,12,22,13.80
2018,10,20,12,23,13.80
2018,10,20,12,24,13.80
2018,10,20,12,25,13.90
2018,10,20,12,26,14.00
2018,10,20,12,27,14.10
2018,10,20,12,28,14.10
2018,10,20,12,29,14.20
2018,10,20,12,30,14.30
2018,10,20,12,31,14.40
2018,10,20,12,32,14.50
2018,10,20,12,33,14.60
2018,10,20,12,34,14.60
2018,10,20,12,35,14.80
2018,10,20,12,36,14.90
2018,10,20,12,37,15.00
2018,10,20,12,38,15.20
2018,10,20,12,39,15.20
2018,10,20,12,40,15.20
2018,10,20,12,41,15.10
2018,10,20,12,42,15.00
2018,10,20,12,43,15.00
2018,10,20,12,44,15.10
2018,10,20,12,45,15.10
2018,10,20,12,46,15.10
2018,10,20,12,47,15.00
2018,10,20,12,48,15.00
2018,10,20,12,49,15.00
2018,10,20,12,50,15.00
2018,10,20,12,51,15.00
2018,10,20,12,52,14.90
2018,10,20,12,53,14.90
2018,10,20,12,54,14.90
2018,10,20,12,55,14.90
2018,10,20,12,56,14.90
2018,10,20,12,57,14.90
2018,10,20,12,58,14.90
2018,10,20,12,59,14.90
2018,10,20,13,00,15.00
2018,10,20,13,01,15.00
2018,10,20,13,02,15.10
2018,10,20,13,03,15.10
2018,10,20,13,04,15.20
2018,10,20,13,05,15.20
2018,10,20,13,06,15.20
2018,10,20,13,07,15.30
2018,10,20,13,08,15.30
2018,10,20,13,09,15.30
2018,10,20,13,10,15.20
2018,10,20,13,11,15.20
2018,10,20,13,12,15.10
2018,10,20,13,13,15.10
2018,10,20,13,14,15.00
2018,10,20,13,15,15.00
2018,10,20,13,16,14.90
2018,10,20,13,17,14.90
2018,10,20,13,18,14.90
2018,10,20,13,19,14.90
2018,10,20,13,20,14.90
2018,10,20,13,21,14.90
2018,10,20,13,22,14.90
2018,10,20,13,23,14.90
2018,10,20,13,24,14.90
2018,10,20,13,25,14.90
2018,10,20,13,26,14.90
2018,10,20,13,27,14.90
2018,10,20,13,28,14.90
2018,10,20,13,29,14.90
2018,10,20,13,30,14.90
2018,10,20,13,31,15.00
2018,10,20,13,32,15.00
2018,10,20,13,33,15.00
2018,10,20,13,34,15.10
2018,10,20,13,35,15.10
2018,10,20,13,36,15.10
2018,10,20,13,37,15.00
2018,10,20,13,38,15.00
2018,10,20,13,39,15.10
2018,10,20,13,40,15.10
2018,10,20,13,41,15.10
2018,10,20,13,42,15.10
2018,10,20,13,43,15.20
2018,10,20,13,44,15.20
2018,10,20,13,45,15.20
2018,10,20,13,46,15.20
2018,10,20,13,47,15.20
2018,10,20,13,48,15.30
2018,10,20,13,49,15.30
2018,10,20,13,50,15.40
2018,10,20,13,51,15.40
2018,10,20,13,52,15.40
2018,10,20,13,53,15.30
2018,10,20,13,54,15.30
2018,10,20,13,55,15.30
2018,10,20,13,56,15.40
2018,10,20,13,57,15.40
2018,10,20,13,58,15.40
2018,10,20,13,59,15.40
2018,10,20,14,00,15.50
2018,10,20,14,01,15.50
2018,10,20,14,02,15.60
2018,10,20,14,03,15.60
2018,10,20,14,04,15.70
2018,10,20,14,05,15.70
2018,10,20,14,06,15.80
2018,10,20,14,07,15.80
2018,10,20,14,08,15.80
2018,10,20,14,09,15.80
2018,10,20,14,10,15.90
2018,10,20,14,11,16.00
2018,10,20,14,12,15.90
2018,10,20,14,13,15.90
2018,10,20,14,14,15.80
2018,10,20,14,15,15.80
2018,10,20,14,16,15.90
2018,10,20,14,17,15.90
2018,10,20,14,18,15.90
2018,10,20,14,19,15.90
2018,10,20,14,20,15.90
2018,10,20,14,21,15.90
2018,10,20,14,22,15.90
2018,10,20,14,23,15.90
2018,10,20,14,24,15.90
2018,10,20,14,25,16.00
2018,10,20,14,26,16.00
2018,10,20,14,27,16.10
2018,10,20,14,28,16.20
2018,10,20,14,29,16.20
2018,10,20,14,30,16.30
2018,10,20,14,31,16.40
2018,10,20,14,32,16.50
2018,10,20,14,33,16.60
2018,10,20,14,34,16.70
2018,10,20,14,35,16.80
2018,10,20,14,36,16.80
2018,10,20,14,37,16.90
2018,10,20,14,38,17.00
2018,10,20,14,39,17.10
2018,10,20,14,40,17.20
2018,10,20,14,41,17.30
2018,10,20,14,42,17.40
2018,10,20,14,43,17.40
2018,10,20,14,44,17.40
2018,10,20,14,45,17.30
2018,10,20,14,46,17.20
2018,10,20,14,47,17.10
2018,10,20,14,48,17.00
2018,10,20,14,49,16.90
2018,10,20,14,50,16.80
2018,10,20,14,51,16.80
2018,10,20,14,52,16.80
2018,10,20,14,53,16.80
2018,10,20,14,54,16.80
2018,10,20,14,55,16.80
2018,10,20,14,56,16.80
2018,10,20,14,57,16.80
2018,10,20,14,58,16.70
2018,10,20,14,59,16.70
2018,10,20,15,00,16.70
2018,10,20,15,01,16.70
2018,10,20,15,02,16.70
2018,10,20,15,03,16.70
2018,10,20,15,04,16.80
2018,10,20,15,05,16.80
2018,10,20,15,06,16.90
2018,10,20,15,07,17.00
2018,10,20,15,08,17.10
2018,10,20,15,09,17.20
2018,10,20,15,10,17.20
2018,10,20,15,11,17.20
2018,10,20,15,12,17.20
2018,10,20,15,13,17.20
2018,10,20,15,14,17.20
2018,10,20,15,15,17.10
2018,10,20,15,16,17.10
2018,10,20,15,17,17.00
2018,10,20,15,18,17.00
2018,10,20,15,19,16.90
2018,10,20,15,20,16.90
2018,10,20,15,21,16.80
2018,10,20,15,22,16.80
2018,10,20,15,23,16.80
2018,10,20,15,24,16.80
2018,10,20,15,25,16.90
2018,10,20,15,26,16.90
2018,10,20,15,27,16.90
2018,10,20,15,28,16.90
2018,10,20,15,29,16.90
2018,10,20,15,30,17.00
2018,10,20,15,31,17.00
2018,10,20,15,32,17.00
2018,10,20,15,33,17.00
2018,10,20,15,34,16.90
2018,10,20,15,35,16.90
2018,10,20,15,36,16.90
2018,10,20,15,37,16.90
2018,10,20,15,38,17.00
2018,10,20,15,39,17.00
2018,10,20,15,40,17.10
2018,10,20,15,41,17.10
2018,10,20,15,42,17.10
2018,10,20,15,43,17.10
2018,10,20,15,44,17.00
2018,10,20,15,45,17.00
2018,10,20,15,46,16.90
2018,10,20,15,47,16.90
2018,10,20,15,48,16.90
2018,10,20,15,49,17.00
2018,10,20,15,50,17.00
2018,10,20,15,51,17.10
2018,10,20,15,52,17.10
2018,10,20,15,53,17.10
2018,10,20,15,54,17.20
2018,10,20,15,55,17.20
2018,10,20,15,56,17.20
2018,10,20,15,57,17.30
2018,10,20,15,58,17.40
2018,10,20,15,59,17.40
2018,10,20,16,00,17.40
2018,10,20,16,01,17.40
2018,10,20,16,02,17.40
2018,10,20,16,03,17.30
2018,10,20,16,04,17.20
2018,10,20,16,05,17.20
2018,10,20,16,06,17.00
2018,10,20,16,07,16.90
2018,10,20,16,08,16.90
2018,10,20,16,09,16.80
2018,10,20,16,10,16.70
2018,10,20,16,11,16.70
2018,10,20,16,12,16.60
2018,10,20,16,13,16.60
2018,10,20,16,14,16.60
2018,10,20,16,15,16.50
2018,10,20,16,16,16.50
2018,10,20,16,17,16.50
2018,10,20,16,18,16.50
2018,10,20,16,19,16.50
2018,10,20,16,20,16.50
2018,10,20,16,21,16.50
2018,10,20,16,22,16.50
2018,10,20,16,23,16.50
2018,10,20,16,24,16.50
2018,10,20,16,25,16.60
2018,10,20,16,26,16.60
2018,10,20,16,27,16.60
2018,10,20,16,28,16.60
2018,10,20,16,29,16.70
2018,10,20,16,30,16.70
2018,10,20,16,31,16.70
2018,10,20,16,32,16.70
2018,10,20,16,33,16.70
2018,10,20,16,34,16.70
2018,10,20,16,35,16.70
2018,10,20,16,36,16.80
2018,10,20,16,37,16.80
2018,10,20,16,38,16.80
2018,10,20,16,39,16.90
2018,10,20,16,40,16.90
2018,10,20,16,41,16.90
2018,10,20,16,42,16.80
2018,10,20,16,43,16.80
2018,10,20,16,44,16.80
2018,10,20,16,45,16.80
2018,10,20,16,46,16.80
2018,10,20,16,47,16.70
2018,10,20,16,48,16.70
2018,10,20,16,49,16.70
2018,10,20,16,50,16.70
2018,10,20,16,51,16.60
2018,10,20,16,52,16.60
2018,10,20,16,53,16.60
2018,10,20,16,54,16.50
2018,10,20,16,55,16.40
2018,10,20,16,56,16.40
2018,10,20,16,57,16.40
2018,10,20,16,58,16.30
2018,10,20,16,59,16.30
2018,10,20,17,00,16.30
2018,10,20,17,01,16.30
2018,10,20,17,02,16.30
2018,10,20,17,03,16.30
2018,10,20,17,04,16.30
2018,10,20,17,05,16.30
2018,10,20,17,06,16.30
2018,10,20,17,07,16.30
2018,10,20,17,08,16.30
2018,10,20,17,09,16.30
2018,10,20,17,10,16.30
2018,10,20,17,11,16.30
2018,10,20,17,12,16.20
2018,10,20,17,13,16.20
2018,10,20,17,14,16.20
2018,10,20,17,15,16.20
2018,10,20,17,16,16.20
2018,10,20,17,17,16.20
2018,10,20,17,18,16.20
2018,10,20,17,19,16.20
2018,10,20,17,20,16.20
2018,10,20,17,21,16.20
2018,10,20,17,22,16.20
2018,10,20,17,23,16.20
2018,10,20,17,24,16.20
2018,10,20,17,25,16.30
2018,10,20,17,26,16.30
2018,10,20,17,27,16.30
2018,10,20,17,28,16.30
2018,10,20,17,29,16.30
2018,10,20,17,30,16.30
2018,10,20,17,31,16.30
2018,10,20,17,32,16.30
2018,10,20,17,33,16.30
2018,10,20,17,34,16.30
2018,10,20,17,35,16.30
2018,10,20,17,36,16.30
2018,10,20,17,37,16.20
2018,10,20,17,38,16.20
2018,10,20,17,39,16.20
2018,10,20,17,40,16.20
2018,10,20,17,41,16.10
2018,10,20,17,42,16.10
2018,10,20,17,43,16.00
2018,10,20,17,44,16.00
2018,10,20,17,45,15.90
2018,10,20,17,46,15.90
2018,10,20,17,47,15.80
2018,10,20,17,48,15.80